Flag for Germany Weather past 2 weeks in Lohne (Oldenburg), Lower Saxony, Germany

Now
36 °F

Partly sunny.


Feels Like: 29 °F
Forecast: 31 / 37 °F
Wind: 9 mph from West

Location: Bremen Airport

Current Time: Feb 1, 2015 at 4:51:04 PM

Latest Report: Feb 1, 2015 at 4:20 PM


Visibility: 5 mi

Pressure: 29.24 "Hg

Humidity: 87%

Dew point: 32 °F

Location of Lohne (Oldenburg)Location

Historic Weather in Lohne (Oldenburg) — Graph

°F

Lohne (Oldenburg) temperature yesterday

Maximum temperature yesterday: 39 °F (at 4:20 PM)
Minimum temperature yesterday: 32 °F (at 2:20 AM)
Average temperature yesterday: 34 °F

Past Weeks' High & Low Weather Summary

 TemperatureHumidityPressure
High43 °F (Jan 26, 6:20 PM)100% (Jan 18, 1:20 PM)30.33 "Hg (Jan 18, 1:20 PM)
Low21 °F (Jan 21, 7:20 AM)70% (Jan 17, 3:20 PM)28.68 "Hg (Jan 30, 2:50 AM)
Average33 °F93%29.75 "Hg
* Reported Jan 17 3:20 PM — Feb 1 3:50 PM, Lohne (Oldenburg), Weather by CustomWeather, © 2014

Note: Actual official high and low records may vary slightly from our data, if they occured in-between our weather recording intervals... More about our weather records

Advertising

Lohne (Oldenburg) weather history for previous 24 hours

 ConditionsComfort  
Time TempWeatherWind HumidityBarometerVisibility
3:50 PM
Feb 1
36 °FPartly sunny.10 mph87%29.24 "Hg5 mi
3:20 PM36 °FPartly sunny.9 mph87%29.24 "Hg5 mi
2:50 PM36 °FPartly sunny.8 mph87%29.21 "Hg4 mi
2:20 PM34 °FPartly sunny.12 mph93%29.21 "Hg4 mi
1:50 PM34 °FPartly sunny.12 mph93%29.21 "Hg4 mi
1:20 PM34 °FPartly sunny.9 mph93%29.21 "Hg4 mi
12:50 PM34 °FPartly sunny.12 mph93%29.21 "Hg4 mi
12:20 PM34 °FPartly sunny.9 mph93%29.21 "Hg4 mi
11:50 AM34 °FPartly sunny.8 mph93%29.21 "Hg4 mi
11:20 AM34 °FPartly sunny.9 mph93%29.21 "Hg4 mi
10:50 AM34 °FPartly sunny.8 mph93%29.18 "Hg4 mi
10:20 AM34 °FFog.9 mph93%29.18 "Hg3 mi
9:50 AM34 °FFog.10 mph93%29.15 "Hg3 mi
9:20 AM32 °FIce fog.9 mph100%29.15 "Hg3 mi
8:50 AM32 °FIce fog.10 mph100%29.15 "Hg2 mi
8:20 AM32 °FIce fog.9 mph100%29.15 "Hg2 mi
7:50 AM32 °FIce fog.7 mph100%29.12 "Hg2 mi
7:20 AM32 °FIce fog.8 mph100%29.12 "Hg2 mi
6:50 AM32 °FIce fog.7 mph100%29.12 "Hg2 mi
6:20 AM32 °FIce fog.9 mph100%29.12 "Hg3 mi
5:50 AM32 °FIce fog.7 mph100%29.09 "Hg3 mi
5:20 AM34 °FPassing clouds.7 mph93%29.09 "Hg3 mi
4:50 AM32 °FPassing clouds.3 mph100%29.09 "Hg5 mi
4:20 AM32 °FPassing clouds.2 mph100%29.09 "Hg5 mi
3:50 AM34 °FPartly cloudy.3 mph93%29.09 "HgN/A
3:20 AM34 °FPartly cloudy.5 mph93%29.09 "HgN/A
2:50 AM34 °FPartly cloudy.5 mph93%29.09 "HgN/A
2:20 AM34 °FPartly cloudy.8 mph93%29.09 "HgN/A
1:50 AM34 °FPassing clouds.7 mph100%29.06 "HgN/A
1:20 AM34 °FChilly.10 mph100%29.06 "HgN/A
12:50 AM34 °FClear.8 mph100%29.06 "Hg10 mi
12:20 AM34 °FPassing clouds.8 mph100%29.06 "HgN/A
11:50 PM
Jan 31
34 °FPartly cloudy.9 mph100%29.06 "HgN/A
11:20 PM36 °FPartly cloudy.10 mph93%29.06 "HgN/A
10:50 PM34 °FPassing clouds.9 mph100%29.06 "HgN/A
10:20 PM36 °FPassing clouds.8 mph93%29.06 "HgN/A
9:50 PM36 °FPassing clouds.8 mph93%29.03 "HgN/A
9:20 PM36 °FPassing clouds.8 mph93%29.03 "HgN/A
8:50 PM36 °FPassing clouds.7 mph93%29.03 "HgN/A
8:20 PM36 °FPartly cloudy.9 mph93%29.03 "HgN/A
7:50 PM36 °FPassing clouds.10 mph93%29.03 "HgN/A
7:20 PM36 °FPassing clouds.10 mph93%29.00 "HgN/A
6:50 PM36 °FPassing clouds.9 mph93%29.00 "HgN/A
6:20 PM37 °FLight rain. Passing clouds.12 mph87%29.00 "HgN/A
5:50 PM37 °FPassing clouds.9 mph87%29.00 "HgN/A
5:20 PM37 °FPassing clouds.7 mph87%28.97 "HgN/A
4:50 PM37 °FPartly sunny.10 mph87%28.97 "HgN/A
4:20 PM39 °FPartly sunny.12 mph87%28.97 "HgN/A
Weather by CustomWeather, © 2014

See weather overviewHow to use our weather pages